Location: Eaton
(41.3139°N, 82.0207°W)
Time: 17:02:10
(UTC+00:00)

NOSS 3-1 (C) - Pass Details

Date: 17 June 2021
Orbit: 724 x 1485 km, 63.4° (Epoch: 20 July)

Event Time Altitude Azimuth Distance (km) Brightness Sun altitude
Exits shadow 06:18:59 54° 241° (WSW) 984 3.2 -24.3°
Maximum altitude 06:20:11 74° 306° (NW) 869 3.2 -24.2°
Drops below altitude 10° 06:26:17 10° 32° (NNE) 2,673 6.8 -24.0°
Sets 06:29:05 0° 35° (NE) 3,741 7.7 -23.8°
